TNO5555 WIII-WBKK

Flight info

Callsign TNO5555
Flight time 2h 24m
Altitude 39000
Route AMBOY P648 VJN80
Aircraft A20N/M-SDE2E3FGHIRWXY/LB1

Departure

Time 2026-05-08 02:04
Airport Soekarno-Hatta International Airport (WIII)

Arrival

Time 2026-05-08 04:28
Airport Kota Kinabalu International Airport (WBKK)
Time Latitude Longitude Altitude Speed Heading
2026-05-08 01:55 -6.11764 106.65434 31 ft 14 kts 252°
2026-05-08 01:56 -6.11801 106.65350 32 ft 12 kts 242°
2026-05-08 01:56 -6.11847 106.65255 32 ft 16 kts 248°
2026-05-08 01:56 -6.11884 106.65155 33 ft 15 kts 250°
2026-05-08 01:56 -6.11919 106.65060 31 ft 14 kts 250°
2026-05-08 01:57 -6.11953 106.64965 33 ft 16 kts 252°
2026-05-08 01:57 -6.11990 106.64865 33 ft 15 kts 249°
2026-05-08 01:57 -6.12027 106.64771 34 ft 14 kts 249°
2026-05-08 01:57 -6.12061 106.64702 34 ft 10 kts 251°
2026-05-08 01:58 -6.12112 106.64589 34 ft 19 kts 246°
2026-05-08 01:58 -6.12155 106.64469 35 ft 17 kts 243°
2026-05-08 01:58 -6.12245 106.64459 35 ft 13 kts 172°
2026-05-08 01:58 -6.12365 106.64506 33 ft 25 kts 156°
2026-05-08 01:59 -6.12531 106.64560 35 ft 25 kts 165°
2026-05-08 01:59 -6.12686 106.64617 34 ft 24 kts 158°
2026-05-08 01:59 -6.12830 106.64692 34 ft 23 kts 150°
2026-05-08 01:59 -6.12974 106.64747 35 ft 22 kts 161°
2026-05-08 02:00 -6.13114 106.64793 34 ft 19 kts 169°
2026-05-08 02:00 -6.13215 106.64757 35 ft 14 kts 187°
2026-05-08 02:00 -6.13304 106.64774 34 ft 12 kts 162°
2026-05-08 02:00 -6.13385 106.64800 34 ft 11 kts 158°
2026-05-08 02:01 -6.13449 106.64836 34 ft 10 kts 151°
2026-05-08 02:01 -6.13552 106.64884 34 ft 24 kts 159°
2026-05-08 02:01 -6.13706 106.64919 34 ft 21 kts 197°
2026-05-08 02:01 -6.13769 106.64823 35 ft 16 kts 249°
2026-05-08 02:02 -6.13814 106.64707 35 ft 18 kts 249°
2026-05-08 02:02 -6.13861 106.64591 34 ft 17 kts 247°
2026-05-08 02:02 -6.13908 106.64481 36 ft 17 kts 247°
2026-05-08 02:02 -6.13953 106.64376 36 ft 16 kts 246°
2026-05-08 02:03 -6.14000 106.64281 36 ft 13 kts 222°
2026-05-08 02:03 -6.14075 106.64270 37 ft 10 kts 174°
2026-05-08 02:03 -6.14152 106.64290 37 ft 13 kts 150°
2026-05-08 02:03 -6.14217 106.64398 37 ft 20 kts 71°
2026-05-08 02:04 -6.14079 106.64752 34 ft 91 kts 68°
2026-05-08 02:04 -6.13755 106.65590 32 ft 165 kts 69°
2026-05-08 02:04 -6.13344 106.66639 783 ft 163 kts 68°
2026-05-08 02:04 -6.12874 106.67813 1172 ft 199 kts 68°
2026-05-08 02:05 -6.12322 106.69197 1503 ft 226 kts 68°
2026-05-08 02:05 -6.11709 106.70745 1855 ft 249 kts 70°
2026-05-08 02:05 -6.11306 106.72480 2390 ft 260 kts 83°
2026-05-08 02:05 -6.11133 106.74275 3083 ft 263 kts 86°
2026-05-08 02:06 -6.11019 106.76112 3842 ft 264 kts 87°
2026-05-08 02:06 -6.10925 106.77963 4599 ft 266 kts 88°
2026-05-08 02:06 -6.10838 106.79827 5330 ft 268 kts 88°
2026-05-08 02:06 -6.10755 106.81701 6085 ft 269 kts 88°
2026-05-08 02:07 -6.10674 106.83579 6788 ft 270 kts 88°
2026-05-08 02:07 -6.10593 106.85481 7428 ft 274 kts 88°
2026-05-08 02:07 -6.10511 106.87411 8081 ft 278 kts 88°
2026-05-08 02:07 -6.10429 106.89334 8739 ft 281 kts 88°
2026-05-08 02:08 -6.10345 106.91308 9400 ft 285 kts 88°
2026-05-08 02:08 -6.10261 106.93309 10028 ft 289 kts 88°
2026-05-08 02:08 -6.10173 106.95383 10316 ft 305 kts 88°
2026-05-08 02:08 -6.10081 106.97573 10538 ft 323 kts 88°
2026-05-08 02:09 -6.09983 106.99884 10760 ft 338 kts 88°
2026-05-08 02:09 -6.09881 107.02276 11133 ft 347 kts 88°
2026-05-08 02:09 -6.09812 107.04715 11639 ft 351 kts 90°
2026-05-08 02:09 -6.09801 107.07177 12140 ft 354 kts 90°
2026-05-08 02:10 -6.09802 107.09664 12661 ft 358 kts 90°
2026-05-08 02:10 -6.09804 107.12138 13201 ft 360 kts 90°
2026-05-08 02:10 -6.09724 107.14666 13742 ft 363 kts 84°
2026-05-08 02:10 -6.09159 107.17144 14205 ft 368 kts 70°
2026-05-08 02:11 -6.07930 107.19409 14689 ft 373 kts 54°
2026-05-08 02:11 -6.06161 107.21331 15174 ft 377 kts 45°
2026-05-08 02:11 -6.04226 107.23119 15659 ft 380 kts 43°
2026-05-08 02:11 -6.02252 107.24899 16120 ft 383 kts 43°
2026-05-08 02:12 -6.00263 107.26696 16568 ft 386 kts 43°
2026-05-08 02:12 -5.98291 107.28490 17015 ft 389 kts 43°
2026-05-08 02:12 -5.96284 107.30320 17450 ft 392 kts 43°
2026-05-08 02:12 -5.94263 107.32168 17887 ft 394 kts 44°
2026-05-08 02:13 -5.92227 107.34033 18275 ft 397 kts 44°
2026-05-08 02:13 -5.90182 107.35906 18637 ft 399 kts 43°
2026-05-08 02:13 -5.88128 107.37789 19002 ft 401 kts 43°
2026-05-08 02:13 -5.86062 107.39682 19356 ft 402 kts 43°
2026-05-08 02:14 -5.83988 107.41583 19688 ft 405 kts 43°
2026-05-08 02:14 -5.81905 107.43492 20015 ft 406 kts 43°
2026-05-08 02:14 -5.79843 107.45382 20354 ft 407 kts 43°
2026-05-08 02:14 -5.77755 107.47295 20751 ft 407 kts 43°
2026-05-08 02:15 -5.75656 107.49219 21089 ft 409 kts 43°
2026-05-08 02:15 -5.73549 107.51149 21437 ft 411 kts 43°
2026-05-08 02:15 -5.71433 107.53088 21763 ft 413 kts 43°
2026-05-08 02:15 -5.69308 107.55035 22128 ft 415 kts 43°
2026-05-08 02:16 -5.67173 107.56991 22463 ft 417 kts 43°
2026-05-08 02:16 -5.65029 107.58954 22832 ft 418 kts 43°
2026-05-08 02:16 -5.62901 107.60904 23154 ft 420 kts 43°
2026-05-08 02:16 -5.60737 107.62885 23486 ft 422 kts 43°
2026-05-08 02:17 -5.58561 107.64879 23754 ft 424 kts 43°
2026-05-08 02:17 -5.56375 107.66881 24018 ft 426 kts 43°
2026-05-08 02:17 -5.54180 107.68892 24298 ft 428 kts 43°
2026-05-08 02:17 -5.51977 107.70909 24569 ft 430 kts 43°
2026-05-08 02:18 -5.49763 107.72937 24866 ft 432 kts 43°
2026-05-08 02:18 -5.47542 107.74971 25144 ft 434 kts 43°
2026-05-08 02:18 -5.45285 107.76928 25478 ft 435 kts 38°
2026-05-08 02:18 -5.42753 107.78601 25754 ft 438 kts 29°
2026-05-08 02:19 -5.39961 107.79821 26083 ft 440 kts 20°
2026-05-08 02:19 -5.37033 107.80743 26373 ft 442 kts 18°
2026-05-08 02:19 -5.34065 107.81600 26664 ft 445 kts 17°
2026-05-08 02:19 -5.31081 107.82453 26950 ft 447 kts 17°
2026-05-08 02:20 -5.28086 107.83314 27259 ft 449 kts 17°
2026-05-08 02:20 -5.25078 107.84182 27545 ft 450 kts 17°
2026-05-08 02:20 -5.22060 107.85056 27811 ft 453 kts 17°
2026-05-08 02:20 -5.19069 107.85924 28095 ft 454 kts 17°
2026-05-08 02:21 -5.16023 107.86808 28357 ft 457 kts 17°
2026-05-08 02:21 -5.12966 107.87696 28634 ft 458 kts 17°
2026-05-08 02:21 -5.09897 107.88588 28885 ft 461 kts 17°
2026-05-08 02:21 -5.06811 107.89485 29159 ft 462 kts 17°
2026-05-08 02:22 -5.03723 107.90382 29530 ft 461 kts 17°
2026-05-08 02:22 -5.00650 107.91274 29962 ft 459 kts 17°
2026-05-08 02:22 -4.97579 107.92166 30269 ft 458 kts 17°
2026-05-08 02:22 -4.94566 107.93041 30626 ft 456 kts 17°
2026-05-08 02:23 -4.91518 107.93926 30931 ft 455 kts 17°
2026-05-08 02:23 -4.88487 107.94807 31283 ft 453 kts 17°
2026-05-08 02:23 -4.85456 107.95687 31590 ft 452 kts 17°
2026-05-08 02:23 -4.82439 107.96563 31912 ft 451 kts 17°
2026-05-08 02:24 -4.79430 107.97439 32223 ft 450 kts 17°
2026-05-08 02:24 -4.76425 107.98313 32525 ft 449 kts 17°
2026-05-08 02:24 -4.73428 107.99185 32833 ft 448 kts 17°
2026-05-08 02:24 -4.70441 108.00055 33118 ft 447 kts 17°
2026-05-08 02:25 -4.67489 108.00914 33369 ft 447 kts 17°
2026-05-08 02:25 -4.64508 108.01782 33621 ft 447 kts 17°
2026-05-08 02:25 -4.61522 108.02650 33905 ft 445 kts 17°
2026-05-08 02:25 -4.58550 108.03515 34120 ft 445 kts 17°
2026-05-08 02:26 -4.55578 108.04380 34362 ft 444 kts 17°
2026-05-08 02:26 -4.52614 108.05244 34544 ft 441 kts 18°
2026-05-08 02:26 -4.49681 108.06120 34438 ft 440 kts 18°
2026-05-08 02:26 -4.46778 108.06986 34145 ft 443 kts 18°
2026-05-08 02:27 -4.43817 108.07862 33896 ft 445 kts 18°
2026-05-08 02:27 -4.40837 108.08737 33595 ft 447 kts 17°
2026-05-08 02:27 -4.37847 108.09606 33281 ft 448 kts 17°
2026-05-08 02:27 -4.34853 108.10474 32886 ft 450 kts 17°
2026-05-08 02:28 -4.31837 108.11349 32483 ft 452 kts 18°
2026-05-08 02:28 -4.28806 108.12229 32077 ft 455 kts 18°
2026-05-08 02:28 -4.25757 108.13115 31761 ft 456 kts 18°
2026-05-08 02:28 -4.22709 108.14003 31448 ft 457 kts 18°
2026-05-08 02:29 -4.19653 108.14896 31218 ft 458 kts 18°
2026-05-08 02:29 -4.16637 108.15776 30974 ft 458 kts 19°
2026-05-08 02:29 -4.13651 108.16880 30727 ft 456 kts 28°
2026-05-08 02:29 -4.10986 108.18577 30456 ft 455 kts 38°
2026-05-08 02:30 -4.08475 108.20513 30183 ft 456 kts 40°
2026-05-08 02:30 -4.05989 108.22487 29900 ft 457 kts 40°
2026-05-08 02:30 -4.03497 108.24468 29600 ft 458 kts 40°
2026-05-08 02:30 -4.01000 108.26444 29299 ft 457 kts 39°
2026-05-08 02:31 -3.98503 108.28412 28946 ft 457 kts 40°
2026-05-08 02:31 -3.96041 108.30350 28710 ft 455 kts 40°
2026-05-08 02:31 -3.93560 108.32307 28524 ft 453 kts 40°
2026-05-08 02:31 -3.91085 108.34260 28335 ft 452 kts 40°
2026-05-08 02:32 -3.88620 108.36202 28148 ft 450 kts 40°
2026-05-08 02:32 -3.86164 108.38137 27950 ft 449 kts 40°
2026-05-08 02:32 -3.83713 108.40066 27768 ft 447 kts 40°
2026-05-08 02:32 -3.81271 108.41988 27567 ft 446 kts 40°
2026-05-08 02:33 -3.78835 108.43905 27382 ft 445 kts 40°
2026-05-08 02:33 -3.76435 108.45793 27207 ft 444 kts 40°
2026-05-08 02:33 -3.74011 108.47700 27043 ft 442 kts 40°
2026-05-08 02:33 -3.71601 108.49595 26864 ft 441 kts 40°
2026-05-08 02:34 -3.69191 108.51491 26677 ft 440 kts 40°
2026-05-08 02:34 -3.66791 108.53378 26523 ft 438 kts 40°
2026-05-08 02:34 -3.64394 108.55263 26328 ft 438 kts 40°
2026-05-08 02:34 -3.62006 108.57140 26176 ft 436 kts 40°
2026-05-08 02:35 -3.59624 108.59013 25977 ft 436 kts 40°
2026-05-08 02:35 -3.57271 108.60863 25784 ft 435 kts 40°
2026-05-08 02:35 -3.54892 108.62733 25627 ft 434 kts 40°
2026-05-08 02:35 -3.52521 108.64597 25468 ft 433 kts 40°
2026-05-08 02:36 -3.50158 108.66453 25305 ft 432 kts 40°
2026-05-08 02:36 -3.47797 108.68309 25144 ft 431 kts 40°
2026-05-08 02:36 -3.45446 108.70156 24986 ft 429 kts 40°
2026-05-08 02:36 -3.43097 108.72002 24831 ft 428 kts 40°
2026-05-08 02:37 -3.40756 108.73841 24669 ft 427 kts 40°
2026-05-08 02:37 -3.38453 108.75651 24507 ft 426 kts 40°
2026-05-08 02:37 -3.36120 108.77483 24350 ft 425 kts 40°
2026-05-08 02:37 -3.33797 108.79308 24187 ft 424 kts 40°
2026-05-08 02:38 -3.31483 108.81125 24063 ft 422 kts 40°
2026-05-08 02:38 -3.29172 108.82940 23888 ft 422 kts 39°
2026-05-08 02:38 -3.26868 108.84750 23743 ft 420 kts 40°
2026-05-08 02:38 -3.24568 108.86557 23571 ft 420 kts 40°
2026-05-08 02:39 -3.22273 108.88359 23435 ft 418 kts 40°
2026-05-08 02:39 -3.19986 108.90155 23240 ft 418 kts 40°
2026-05-08 02:39 -3.17736 108.91923 23078 ft 416 kts 39°
2026-05-08 02:39 -3.15459 108.93711 22875 ft 416 kts 40°
2026-05-08 02:40 -3.13187 108.95495 22715 ft 415 kts 39°
2026-05-08 02:40 -3.10919 108.97276 22514 ft 414 kts 40°
2026-05-08 02:40 -3.08659 108.99050 22364 ft 413 kts 39°
2026-05-08 02:40 -3.06400 109.00825 22175 ft 412 kts 40°
2026-05-08 02:41 -3.04152 109.02590 22031 ft 410 kts 40°
2026-05-08 02:41 -3.01935 109.04324 21768 ft 409 kts 40°
2026-05-08 02:41 -2.99699 109.06071 21501 ft 408 kts 39°
2026-05-08 02:41 -2.97467 109.07817 21219 ft 407 kts 40°
2026-05-08 02:42 -2.95242 109.09564 21023 ft 406 kts 40°
2026-05-08 02:42 -2.93026 109.11311 20867 ft 407 kts 39°
2026-05-08 02:42 -2.90783 109.13051 20972 ft 408 kts 39°
2026-05-08 02:42 -2.88534 109.14791 21331 ft 409 kts 39°
2026-05-08 02:43 -2.86290 109.16531 21782 ft 409 kts 39°
2026-05-08 02:43 -2.84041 109.18283 22175 ft 411 kts 39°
2026-05-08 02:43 -2.81812 109.20025 22559 ft 413 kts 39°
2026-05-08 02:43 -2.79543 109.21800 22947 ft 415 kts 39°
2026-05-08 02:44 -2.77266 109.23584 23329 ft 417 kts 39°
2026-05-08 02:44 -2.74979 109.25376 23653 ft 419 kts 39°
2026-05-08 02:44 -2.72676 109.27182 23942 ft 422 kts 39°
2026-05-08 02:44 -2.70361 109.28997 24252 ft 424 kts 39°
2026-05-08 02:45 -2.68038 109.30818 24547 ft 426 kts 39°
2026-05-08 02:45 -2.65699 109.32653 24879 ft 428 kts 39°
2026-05-08 02:45 -2.63348 109.34496 25201 ft 430 kts 39°
2026-05-08 02:45 -2.61018 109.36323 25545 ft 432 kts 39°
2026-05-08 02:46 -2.58645 109.38184 25853 ft 435 kts 39°
2026-05-08 02:46 -2.56261 109.40053 26189 ft 437 kts 39°
2026-05-08 02:46 -2.53865 109.41931 26518 ft 439 kts 39°
2026-05-08 02:46 -2.51455 109.43821 26828 ft 441 kts 39°
2026-05-08 02:47 -2.49036 109.45717 27125 ft 444 kts 39°
2026-05-08 02:47 -2.46598 109.47628 27400 ft 447 kts 39°
2026-05-08 02:47 -2.44146 109.49550 27691 ft 449 kts 39°
2026-05-08 02:47 -2.41719 109.51452 27994 ft 451 kts 39°
2026-05-08 02:48 -2.39248 109.53389 28300 ft 453 kts 39°
2026-05-08 02:48 -2.36761 109.55338 28592 ft 455 kts 39°
2026-05-08 02:48 -2.34267 109.57293 28885 ft 457 kts 39°
2026-05-08 02:48 -2.31762 109.59256 29169 ft 459 kts 39°
2026-05-08 02:49 -2.29244 109.61229 29450 ft 460 kts 39°
2026-05-08 02:49 -2.26725 109.63202 29840 ft 460 kts 39°
2026-05-08 02:49 -2.24213 109.65170 30202 ft 458 kts 39°
2026-05-08 02:49 -2.21702 109.67137 30540 ft 457 kts 39°
2026-05-08 02:50 -2.19236 109.69069 30850 ft 456 kts 39°
2026-05-08 02:50 -2.16742 109.71023 31178 ft 456 kts 39°
2026-05-08 02:50 -2.14247 109.72978 31502 ft 455 kts 39°
2026-05-08 02:50 -2.11756 109.74929 31805 ft 455 kts 39°
2026-05-08 02:51 -2.09267 109.76879 32124 ft 454 kts 39°
2026-05-08 02:51 -2.06787 109.78821 32445 ft 453 kts 39°
2026-05-08 02:51 -2.04309 109.80763 32740 ft 452 kts 39°
2026-05-08 02:51 -2.01863 109.82679 32971 ft 454 kts 39°
2026-05-08 02:52 -1.99380 109.84623 33244 ft 453 kts 39°
2026-05-08 02:52 -1.96900 109.86566 33551 ft 452 kts 39°
2026-05-08 02:52 -1.94426 109.88503 33852 ft 451 kts 39°
2026-05-08 02:52 -1.91960 109.90434 34100 ft 450 kts 39°
2026-05-08 02:53 -1.89495 109.92365 34326 ft 450 kts 39°
2026-05-08 02:53 -1.87033 109.94293 34546 ft 450 kts 39°
2026-05-08 02:53 -1.84572 109.96220 34770 ft 449 kts 39°
2026-05-08 02:53 -1.82113 109.98146 34995 ft 449 kts 38°
2026-05-08 02:54 -1.79659 110.00067 35232 ft 448 kts 38°
2026-05-08 02:54 -1.77242 110.01960 35408 ft 448 kts 38°
2026-05-08 02:54 -1.74784 110.03884 35599 ft 448 kts 38°
2026-05-08 02:54 -1.72330 110.05805 35804 ft 448 kts 38°
2026-05-08 02:55 -1.69881 110.07723 36017 ft 447 kts 38°
2026-05-08 02:55 -1.64990 110.11552 36410 ft 446 kts 38°
2026-05-08 02:55 -1.62547 110.13464 36604 ft 446 kts 38°
2026-05-08 02:56 -1.60107 110.15373 36781 ft 445 kts 38°
2026-05-08 02:56 -1.57703 110.17256 36978 ft 444 kts 38°
2026-05-08 02:56 -1.55271 110.19159 37148 ft 444 kts 38°
2026-05-08 02:56 -1.52842 110.21061 37339 ft 443 kts 38°
2026-05-08 02:57 -1.50414 110.22961 37510 ft 443 kts 38°
2026-05-08 02:57 -1.47992 110.24857 37695 ft 442 kts 38°
2026-05-08 02:57 -1.45574 110.26749 37843 ft 442 kts 38°
2026-05-08 02:57 -1.43154 110.28643 38010 ft 441 kts 38°
2026-05-08 02:58 -1.40772 110.30507 38192 ft 440 kts 39°
2026-05-08 02:58 -1.38363 110.32392 38368 ft 439 kts 39°
2026-05-08 02:58 -1.35958 110.34274 38517 ft 439 kts 39°
2026-05-08 02:58 -1.33556 110.36154 38637 ft 438 kts 39°
2026-05-08 02:59 -1.31157 110.38030 38750 ft 438 kts 39°
2026-05-08 02:59 -1.26356 110.41787 38878 ft 440 kts 39°
2026-05-08 03:00 -1.21565 110.45536 38881 ft 440 kts 39°
2026-05-08 03:00 -1.16754 110.49300 38881 ft 439 kts 38°
2026-05-08 03:01 -1.11955 110.53054 38881 ft 437 kts 38°
2026-05-08 03:01 -1.07165 110.56802 38878 ft 437 kts 39°
2026-05-08 03:02 -1.02402 110.60528 38881 ft 438 kts 39°
2026-05-08 03:02 -0.97606 110.64280 38881 ft 438 kts 39°
2026-05-08 03:03 -0.92809 110.68032 38883 ft 438 kts 39°
2026-05-08 03:03 -0.88011 110.71786 38884 ft 438 kts 39°
2026-05-08 03:04 -0.83253 110.75507 38890 ft 438 kts 39°
2026-05-08 03:04 -0.78455 110.79260 38889 ft 438 kts 39°
2026-05-08 03:05 -0.73660 110.83011 38889 ft 438 kts 39°
2026-05-08 03:05 -0.68859 110.86766 38891 ft 439 kts 39°
2026-05-08 03:06 -0.64084 110.90500 38897 ft 439 kts 39°
2026-05-08 03:06 -0.59273 110.94263 38898 ft 439 kts 39°
2026-05-08 03:07 -0.54467 110.98021 38896 ft 439 kts 39°
2026-05-08 03:07 -0.49662 111.01779 38898 ft 439 kts 39°
2026-05-08 03:08 -0.44857 111.05537 38899 ft 439 kts 39°
2026-05-08 03:08 -0.40085 111.09269 38899 ft 439 kts 39°
2026-05-08 03:09 -0.35278 111.13028 38895 ft 439 kts 38°
2026-05-08 03:09 -0.30474 111.16785 38895 ft 439 kts 38°
2026-05-08 03:10 -0.25667 111.20544 38892 ft 439 kts 38°
2026-05-08 03:10 -0.20891 111.24279 38892 ft 439 kts 38°
2026-05-08 03:11 -0.16086 111.28036 38888 ft 439 kts 38°
2026-05-08 03:11 -0.11276 111.31797 38887 ft 439 kts 38°
2026-05-08 03:12 -0.06471 111.35555 38887 ft 439 kts 38°
2026-05-08 03:12 -0.01696 111.39289 38886 ft 439 kts 38°
2026-05-08 03:13 0.03111 111.43048 38888 ft 440 kts 39°
2026-05-08 03:13 0.07956 111.46837 38886 ft 444 kts 39°
2026-05-08 03:14 0.12835 111.50652 38886 ft 445 kts 39°
2026-05-08 03:14 0.17670 111.54433 38887 ft 444 kts 39°
2026-05-08 03:15 0.22541 111.58241 38889 ft 444 kts 39°
2026-05-08 03:15 0.27407 111.62047 38889 ft 444 kts 39°
2026-05-08 03:16 0.32278 111.65855 38889 ft 444 kts 39°
2026-05-08 03:16 0.37110 111.69635 38890 ft 444 kts 39°
2026-05-08 03:17 0.41983 111.73445 38887 ft 444 kts 39°
2026-05-08 03:17 0.46851 111.77252 38886 ft 445 kts 39°
2026-05-08 03:18 0.51718 111.81059 38882 ft 444 kts 39°
2026-05-08 03:18 0.56550 111.84838 38887 ft 444 kts 39°
2026-05-08 03:19 0.61409 111.88638 38887 ft 444 kts 39°
2026-05-08 03:19 0.66272 111.92441 38886 ft 444 kts 39°
2026-05-08 03:20 0.71131 111.96241 38886 ft 444 kts 38°
2026-05-08 03:20 0.75971 112.00027 38890 ft 447 kts 38°
2026-05-08 03:21 0.80896 112.03879 38887 ft 453 kts 38°
2026-05-08 03:21 0.85883 112.07780 38886 ft 458 kts 38°
2026-05-08 03:22 0.90937 112.11734 38886 ft 464 kts 38°
2026-05-08 03:22 0.96009 112.15701 38886 ft 466 kts 39°
2026-05-08 03:23 1.01110 112.19690 38893 ft 465 kts 39°
2026-05-08 03:23 1.06198 112.23671 38891 ft 465 kts 38°
2026-05-08 03:24 1.11285 112.27651 38892 ft 465 kts 38°
2026-05-08 03:24 1.16373 112.31631 38897 ft 465 kts 38°
2026-05-08 03:25 1.21431 112.35589 38898 ft 465 kts 38°
2026-05-08 03:25 1.26520 112.39571 38897 ft 465 kts 38°
2026-05-08 03:26 1.31609 112.43553 38904 ft 465 kts 38°
2026-05-08 03:26 1.36698 112.47536 38903 ft 465 kts 38°
2026-05-08 03:27 1.41807 112.51534 38907 ft 467 kts 38°
2026-05-08 03:27 1.46883 112.55506 38905 ft 466 kts 39°
2026-05-08 03:28 1.51993 112.59506 38902 ft 466 kts 38°
2026-05-08 03:28 1.57098 112.63502 38903 ft 466 kts 38°
2026-05-08 03:29 1.62171 112.67473 38903 ft 466 kts 38°
2026-05-08 03:29 1.67276 112.71468 38903 ft 466 kts 38°
2026-05-08 03:30 1.74928 112.77460 38897 ft 466 kts 38°
2026-05-08 03:31 1.85123 112.85442 38895 ft 467 kts 38°
2026-05-08 03:32 1.91928 112.90771 38896 ft 467 kts 38°
2026-05-08 03:32 1.97044 112.94777 38892 ft 467 kts 38°
2026-05-08 03:33 2.02989 112.99433 38892 ft 467 kts 38°
2026-05-08 03:33 2.07276 113.02791 38892 ft 467 kts 38°
2026-05-08 03:34 2.12357 113.06772 38890 ft 467 kts 38°
2026-05-08 03:34 2.17477 113.10783 38890 ft 468 kts 38°
2026-05-08 03:35 2.23446 113.15459 38888 ft 470 kts 38°
2026-05-08 03:35 2.28588 113.19488 38890 ft 470 kts 38°
2026-05-08 03:36 2.32863 113.22839 38888 ft 470 kts 38°
2026-05-08 03:36 2.38005 113.26868 38888 ft 470 kts 38°
2026-05-08 03:37 2.43150 113.30900 38887 ft 470 kts 38°
2026-05-08 03:37 2.48292 113.34931 38887 ft 470 kts 39°
2026-05-08 03:38 2.53408 113.38942 38887 ft 470 kts 39°
2026-05-08 03:38 2.58556 113.42978 38891 ft 470 kts 39°
2026-05-08 03:39 2.63699 113.47010 38891 ft 469 kts 38°
2026-05-08 03:39 2.68833 113.51037 38890 ft 469 kts 38°
2026-05-08 03:40 2.73934 113.55037 38890 ft 469 kts 38°
2026-05-08 03:40 2.79066 113.59063 38889 ft 469 kts 38°
2026-05-08 03:41 2.84201 113.63090 38888 ft 468 kts 39°
2026-05-08 03:41 2.89292 113.67085 38892 ft 468 kts 39°
2026-05-08 03:42 2.94415 113.71104 38886 ft 468 kts 39°
2026-05-08 03:42 2.99537 113.75124 38891 ft 468 kts 39°
2026-05-08 03:43 3.04673 113.79154 38893 ft 470 kts 39°
2026-05-08 03:43 3.09783 113.83165 38889 ft 471 kts 38°
2026-05-08 03:44 3.14936 113.87211 38890 ft 471 kts 38°
2026-05-08 03:44 3.20081 113.91251 38897 ft 470 kts 38°
2026-05-08 03:45 3.25170 113.95246 38652 ft 457 kts 38°
2026-05-08 03:45 3.27652 113.97195 38039 ft 452 kts 39°
2026-05-08 03:45 3.30086 113.99106 37299 ft 450 kts 38°
2026-05-08 03:45 3.32536 114.01030 36659 ft 445 kts 38°
2026-05-08 03:46 3.34963 114.02936 35956 ft 443 kts 38°
2026-05-08 03:46 3.37382 114.04837 35208 ft 442 kts 38°
2026-05-08 03:46 3.39799 114.06735 34441 ft 441 kts 38°
2026-05-08 03:46 3.42213 114.08632 33684 ft 441 kts 38°
2026-05-08 03:47 3.44622 114.10525 32769 ft 441 kts 38°
2026-05-08 03:47 3.47040 114.12424 31852 ft 442 kts 38°
2026-05-08 03:47 3.49429 114.14302 30943 ft 443 kts 38°
2026-05-08 03:47 3.51852 114.16206 30121 ft 443 kts 39°
2026-05-08 03:48 3.54265 114.18102 29319 ft 439 kts 39°
2026-05-08 03:48 3.56657 114.19981 28505 ft 435 kts 39°
2026-05-08 03:48 3.59026 114.21843 27716 ft 431 kts 39°
2026-05-08 03:48 3.61368 114.23684 26970 ft 426 kts 39°
2026-05-08 03:49 3.63691 114.25509 26260 ft 422 kts 39°
2026-05-08 03:49 3.65990 114.27316 25543 ft 418 kts 39°
2026-05-08 03:49 3.68236 114.29082 24739 ft 416 kts 39°
2026-05-08 03:49 3.70532 114.30888 23637 ft 426 kts 39°
2026-05-08 03:50 3.72893 114.32746 22546 ft 436 kts 39°
2026-05-08 03:50 3.75305 114.34643 21476 ft 445 kts 39°
2026-05-08 03:50 3.77740 114.36558 20667 ft 446 kts 39°
2026-05-08 03:50 3.80172 114.38470 20008 ft 442 kts 39°
2026-05-08 03:51 3.82582 114.40365 19412 ft 438 kts 39°
2026-05-08 03:51 3.84934 114.42215 18823 ft 434 kts 39°
2026-05-08 03:51 3.87293 114.44070 18234 ft 430 kts 39°
2026-05-08 03:51 3.89634 114.45911 17548 ft 426 kts 39°
2026-05-08 03:52 3.91951 114.47734 16851 ft 422 kts 39°
2026-05-08 03:52 3.94251 114.49544 16176 ft 419 kts 39°
2026-05-08 03:52 3.96533 114.51339 15529 ft 415 kts 39°
2026-05-08 03:52 3.98795 114.53120 14872 ft 412 kts 39°
2026-05-08 03:53 4.01037 114.54883 14246 ft 409 kts 39°
2026-05-08 03:53 4.03264 114.56636 13628 ft 405 kts 39°
2026-05-08 03:53 4.05443 114.58351 12956 ft 402 kts 39°
2026-05-08 03:53 4.07633 114.60075 12297 ft 398 kts 39°
2026-05-08 03:54 4.09798 114.61780 11673 ft 394 kts 39°
2026-05-08 03:54 4.11936 114.63463 11274 ft 384 kts 39°
2026-05-08 03:54 4.13998 114.65086 11067 ft 370 kts 39°
2026-05-08 03:54 4.15986 114.66651 10871 ft 356 kts 39°
2026-05-08 03:55 4.17899 114.68157 10698 ft 343 kts 39°
2026-05-08 03:55 4.19749 114.69614 10385 ft 335 kts 39°
2026-05-08 03:55 4.21567 114.71047 10123 ft 327 kts 39°
2026-05-08 03:55 4.23293 114.72406 10068 ft 312 kts 39°
2026-05-08 03:56 4.24957 114.73716 10060 ft 297 kts 39°
2026-05-08 03:56 4.26561 114.74980 10059 ft 292 kts 39°
2026-05-08 03:56 4.28159 114.76240 10060 ft 293 kts 39°
2026-05-08 03:56 4.29762 114.77504 10061 ft 293 kts 39°
2026-05-08 03:57 4.31368 114.78770 10056 ft 294 kts 39°
2026-05-08 03:57 4.32970 114.80032 10064 ft 293 kts 39°
2026-05-08 03:57 4.34575 114.81297 10061 ft 293 kts 39°
2026-05-08 03:57 4.36158 114.82544 10060 ft 293 kts 39°
2026-05-08 03:58 4.37763 114.83808 10053 ft 293 kts 39°
2026-05-08 03:58 4.39367 114.85073 10027 ft 295 kts 39°
2026-05-08 03:58 4.40987 114.86349 9616 ft 297 kts 39°
2026-05-08 03:58 4.42601 114.87621 9575 ft 294 kts 39°
2026-05-08 03:59 4.44212 114.88891 9915 ft 295 kts 39°
2026-05-08 03:59 4.45819 114.90158 10037 ft 293 kts 39°
2026-05-08 03:59 4.47431 114.91428 10060 ft 303 kts 39°
2026-05-08 03:59 4.49131 114.92770 10041 ft 320 kts 39°
2026-05-08 04:00 4.50844 114.94119 10057 ft 311 kts 39°
2026-05-08 04:00 4.52606 114.95510 10040 ft 328 kts 39°
2026-05-08 04:00 4.54352 114.96885 10064 ft 316 kts 39°
2026-05-08 04:00 4.56132 114.98289 10039 ft 332 kts 39°
2026-05-08 04:01 4.57906 114.99686 10059 ft 318 kts 39°
2026-05-08 04:01 4.59714 115.01113 10045 ft 345 kts 39°
2026-05-08 04:01 4.61626 115.02622 10044 ft 360 kts 39°
2026-05-08 04:01 4.63605 115.04183 10050 ft 363 kts 39°
2026-05-08 04:02 4.65589 115.05747 10054 ft 363 kts 39°
2026-05-08 04:02 4.67577 115.07314 10060 ft 363 kts 39°
2026-05-08 04:02 4.69563 115.08880 10053 ft 363 kts 39°
2026-05-08 04:02 4.71549 115.10447 10046 ft 363 kts 39°
2026-05-08 04:03 4.73532 115.12011 10057 ft 363 kts 39°
2026-05-08 04:03 4.77500 115.15142 10054 ft 363 kts 39°
2026-05-08 04:03 4.79486 115.16709 10055 ft 363 kts 39°
2026-05-08 04:04 4.81471 115.18276 10051 ft 363 kts 39°
2026-05-08 04:04 4.83429 115.19821 10046 ft 363 kts 39°
2026-05-08 04:04 4.85410 115.21385 10044 ft 362 kts 39°
2026-05-08 04:04 4.87392 115.22949 10046 ft 362 kts 39°
2026-05-08 04:05 4.89371 115.24511 10043 ft 362 kts 39°
2026-05-08 04:05 4.91353 115.26076 10047 ft 362 kts 39°
2026-05-08 04:05 4.93334 115.27640 10044 ft 362 kts 39°
2026-05-08 04:05 4.95312 115.29202 10046 ft 362 kts 39°
2026-05-08 04:06 4.97292 115.30766 10041 ft 362 kts 39°
2026-05-08 04:06 4.99246 115.32309 10041 ft 362 kts 39°
2026-05-08 04:06 5.01227 115.33874 10040 ft 363 kts 39°
2026-05-08 04:06 5.03211 115.35440 10034 ft 363 kts 39°
2026-05-08 04:07 5.05191 115.37005 10040 ft 363 kts 39°
2026-05-08 04:07 5.07200 115.38537 10043 ft 363 kts 34°
2026-05-08 04:07 5.09409 115.39762 10035 ft 364 kts 26°
2026-05-08 04:07 5.11698 115.40796 9988 ft 354 kts 24°
2026-05-08 04:08 5.13916 115.41737 9812 ft 339 kts 23°
2026-05-08 04:08 5.16050 115.42623 9629 ft 325 kts 23°
2026-05-08 04:08 5.18073 115.43454 9440 ft 312 kts 23°
2026-05-08 04:08 5.20047 115.44262 9266 ft 300 kts 23°
2026-05-08 04:09 5.21952 115.45039 8979 ft 293 kts 23°
2026-05-08 04:09 5.23837 115.45807 8534 ft 293 kts 23°
2026-05-08 04:09 5.25712 115.46571 8153 ft 290 kts 23°
2026-05-08 04:09 5.27577 115.47330 7731 ft 289 kts 22°
2026-05-08 04:10 5.29435 115.48086 7315 ft 288 kts 22°
2026-05-08 04:10 5.31256 115.48827 6956 ft 285 kts 23°
2026-05-08 04:10 5.33084 115.49570 6598 ft 283 kts 23°
2026-05-08 04:10 5.34907 115.50312 6171 ft 283 kts 23°
2026-05-08 04:11 5.36720 115.51049 5776 ft 280 kts 23°
2026-05-08 04:11 5.38522 115.51782 5399 ft 278 kts 22°
2026-05-08 04:11 5.40313 115.52510 4961 ft 278 kts 22°
2026-05-08 04:11 5.42107 115.53240 4564 ft 276 kts 23°
2026-05-08 04:12 5.43884 115.53963 4174 ft 275 kts 23°
2026-05-08 04:12 5.45610 115.54666 4035 ft 269 kts 22°
2026-05-08 04:12 5.47343 115.55371 4019 ft 270 kts 23°
2026-05-08 04:12 5.49086 115.56081 4017 ft 271 kts 23°
2026-05-08 04:13 5.50832 115.56792 4011 ft 271 kts 22°
2026-05-08 04:13 5.52576 115.57502 4013 ft 271 kts 22°
2026-05-08 04:13 5.54321 115.58212 4012 ft 271 kts 22°
2026-05-08 04:13 5.56065 115.58922 4012 ft 271 kts 22°
2026-05-08 04:14 5.57812 115.59633 4011 ft 271 kts 22°
2026-05-08 04:14 5.59555 115.60342 4014 ft 271 kts 22°
2026-05-08 04:14 5.61277 115.61043 4012 ft 271 kts 22°
2026-05-08 04:14 5.63023 115.61753 4012 ft 271 kts 22°
2026-05-08 04:15 5.64768 115.62464 4013 ft 271 kts 22°
2026-05-08 04:15 5.66514 115.63174 4013 ft 271 kts 22°
2026-05-08 04:15 5.68258 115.63885 4013 ft 271 kts 22°
2026-05-08 04:15 5.70001 115.64595 4008 ft 271 kts 22°
2026-05-08 04:16 5.71748 115.65306 4007 ft 271 kts 22°
2026-05-08 04:16 5.73472 115.66008 4008 ft 271 kts 22°
2026-05-08 04:16 5.75215 115.66718 4007 ft 271 kts 22°
2026-05-08 04:16 5.76884 115.67585 4006 ft 271 kts 33°
2026-05-08 04:17 5.78434 115.68659 4004 ft 271 kts 36°
2026-05-08 04:17 5.79947 115.69783 4004 ft 271 kts 37°
2026-05-08 04:17 5.81449 115.70927 4005 ft 271 kts 37°
2026-05-08 04:17 5.82943 115.72079 4004 ft 271 kts 38°
2026-05-08 04:18 5.84432 115.73231 4003 ft 270 kts 38°
2026-05-08 04:18 5.85895 115.74368 4002 ft 269 kts 38°
2026-05-08 04:18 5.87376 115.75520 4001 ft 269 kts 38°
2026-05-08 04:18 5.88854 115.76670 4001 ft 269 kts 38°
2026-05-08 04:19 5.90335 115.77824 4009 ft 269 kts 38°
2026-05-08 04:19 5.91817 115.78978 4008 ft 269 kts 38°
2026-05-08 04:19 5.93297 115.80131 4006 ft 269 kts 38°
2026-05-08 04:19 5.94778 115.81285 4004 ft 269 kts 38°
2026-05-08 04:20 5.96259 115.82440 4005 ft 269 kts 38°
2026-05-08 04:20 5.97718 115.83577 4004 ft 269 kts 38°
2026-05-08 04:20 5.99197 115.84730 4002 ft 269 kts 38°
2026-05-08 04:20 6.00678 115.85884 4002 ft 269 kts 38°
2026-05-08 04:21 6.02159 115.87038 4001 ft 269 kts 38°
2026-05-08 04:21 6.03565 115.88272 4002 ft 269 kts 48°
2026-05-08 04:21 6.04605 115.89824 4002 ft 268 kts 64°
2026-05-08 04:21 6.05350 115.91543 3998 ft 268 kts 69°
2026-05-08 04:22 6.06010 115.93301 4001 ft 269 kts 70°
2026-05-08 04:22 6.06636 115.95044 3999 ft 269 kts 70°
2026-05-08 04:22 6.07222 115.96826 3996 ft 269 kts 77°
2026-05-08 04:22 6.07576 115.98669 4001 ft 269 kts 81°
2026-05-08 04:23 6.07862 116.00526 3999 ft 269 kts 82°
2026-05-08 04:23 6.08123 116.02386 4000 ft 269 kts 82°
2026-05-08 04:23 6.08373 116.04250 3999 ft 269 kts 82°
2026-05-08 04:23 6.08615 116.06093 3998 ft 259 kts 82°
2026-05-08 04:24 6.08840 116.07829 4000 ft 243 kts 82°
2026-05-08 04:24 6.09050 116.09459 3823 ft 236 kts 82°
2026-05-08 04:24 6.09191 116.11138 3232 ft 249 kts 96°
2026-05-08 04:24 6.08498 116.12754 2580 ft 261 kts 134°
2026-05-08 04:25 6.06963 116.13593 2390 ft 247 kts 171°
2026-05-08 04:25 6.05371 116.13337 2210 ft 226 kts 211°
2026-05-08 04:25 6.04391 116.12228 2039 ft 206 kts 243°
2026-05-08 04:25 6.03715 116.11066 2024 ft 178 kts 238°
2026-05-08 04:26 6.03027 116.10151 1968 ft 156 kts 229°
2026-05-08 04:26 6.02252 116.09385 1960 ft 158 kts 221°
2026-05-08 04:26 6.01390 116.08739 1805 ft 156 kts 215°
2026-05-08 04:26 6.00436 116.08161 1261 ft 165 kts 210°
2026-05-08 04:27 5.99414 116.07645 872 ft 162 kts 206°
2026-05-08 04:27 5.98442 116.07203 696 ft 144 kts 213°
2026-05-08 04:27 5.97567 116.06764 665 ft 152 kts 206°
2026-05-08 04:27 5.96571 116.06345 496 ft 154 kts 204°
2026-05-08 04:28 5.95605 116.05927 226 ft 147 kts 203°
2026-05-08 04:28 5.94707 116.05535 57 ft 135 kts 195°
2026-05-08 04:28 5.93897 116.05211 14 ft 110 kts 201°
2026-05-08 04:28 5.93451 116.05019 15 ft 42 kts 206°
2026-05-08 04:29 5.93183 116.04902 13 ft 42 kts 204°
2026-05-08 04:29 5.92916 116.04787 12 ft 41 kts 194°
2026-05-08 04:29 5.92707 116.04762 13 ft 25 kts 174°
2026-05-08 04:29 5.92539 116.04781 14 ft 24 kts 175°
2026-05-08 04:30 5.92404 116.04811 15 ft 19 kts 134°
2026-05-08 04:30 5.92303 116.04890 15 ft 14 kts 131°
2026-05-08 04:30 5.92308 116.04935 16 ft 10 kts 60°
2026-05-08 04:30 5.92320 116.04961 14 ft 0 kts 71°